星链-5062 (STARLINK-5062 )

导读 | 星芒AI

STARLINK-5062 是 SpaceX 星链计划中的一颗低轨通信卫星,属于第 12 批组网发射的星链卫星之一。该卫星部署在约 550 公里的近地轨道,旨在为全球用户提供高速互联网服务。作为星链星座的重要组成部分,它通过先进的相控阵天线和激光通信技术,提升网络覆盖与连接稳定性。该卫星支持 Ku/Ka 频段通信,具备自动避撞功能,有助于减少太空碎片风险。

基本信息
目录编号:
55637
目录名称:
STARLINK-5062
国际标识:
2023-021K
轨道中心:
EARTH
卫星名称:
星链-5062
卫星全名:
星链-5062 (STARLINK-5062 )
卫星状态:
在轨 (已飞行1038 天)
发射日期:
2023-02-17 UTC
国别 :
美国 (US)
星等 :
--
轨道信息
数据来源 国际轨道数据
星历时间: 2025-12-21T09:55:02+0800
9小时前
查看轨道信息
半长轴: 6950.182km
偏心率: 0.0003061
轨道倾角: 70.001°
近地点辐角 269.071°
升交点赤经 22.772°
平近点角 91.010°
近地点: 569.917km
远地点: 574.173km
周期: 96.107分钟
每日圈数: 14.983338
详细信息
固有亮度:
5
最大亮度:
2.5
卫星平台:
Starlink v1.5
覆盖范围:
全球
运营商:
太空探索技术公司
运营商所在国:
美国
制造商(研发单位):
太空探索技术公司
制造商所在国:
美国
使用方式:
暂无
卫星简介
星链(Starlink)计划是由太空探索技术公司(SpaceX)提出的一个巨型低轨卫星互联网星座项目,计划在2019年至2024年间在太空搭建由约1.2万颗卫星组成的“星链”网络,其中1584颗将部署在地球上空550千米处的近地轨道,并从2020年开始工作。该卫星仍在工作。
2D轨道图
3D轨道图
轨道高度分析图
轨道倾角分析图
轨道综合分析图
查看轨道综合分析图